Time,TemperatureF,DewpointF,PressureIn,WindDirection,WindDirectionDegrees,WindSpeedMPH,WindSpeedGustMPH,Humidity,HourlyPrecipIn,Conditions,Clouds,dailyrainin,SoftwareType,DateUTC
2013-01-23 00:01:00,8.1,-12.9,29.98,West,279,16.0,21.0,37,0.00,,,0.00,Wunderground v.1.15,2013-01-23 05:01:00,
2013-01-23 00:06:00,7.9,-12.5,29.98,WNW,296,14.0,21.0,38,0.00,,,0.00,Wunderground v.1.15,2013-01-23 05:06:00,
2013-01-23 00:11:00,7.8,-13.1,29.99,WNW,290,16.0,19.0,37,0.00,,,0.00,Wunderground v.1.15,2013-01-23 05:11:00,
2013-01-23 00:16:00,7.6,-12.8,29.99,NW,322,17.0,19.0,38,0.00,,,0.00,Wunderground v.1.15,2013-01-23 05:16:00,
2013-01-23 00:26:00,7.2,-12.6,29.99,NW,318,13.0,16.0,39,0.00,,,0.00,Wunderground v.1.15,2013-01-23 05:26:00,
2013-01-23 00:31:00,7.1,-12.7,29.99,WNW,290,12.0,12.0,39,0.00,,,0.00,Wunderground v.1.15,2013-01-23 05:31:00,
2013-01-23 00:36:00,6.9,-12.4,29.98,WNW,284,10.0,15.0,40,0.00,,,0.00,Wunderground v.1.15,2013-01-23 05:36:00,
2013-01-23 00:46:00,6.7,-13.1,29.99,NW,304,12.0,15.0,39,0.00,,,0.00,Wunderground v.1.15,2013-01-23 05:46:00,
2013-01-23 00:51:00,6.6,-13.2,29.99,West,280,12.0,12.0,39,0.00,,,0.00,Wunderground v.1.15,2013-01-23 05:51:00,
2013-01-23 01:01:00,6.4,-12.8,30.00,West,273,12.0,12.0,40,0.00,,,0.00,Wunderground v.1.15,2013-01-23 06:01:00,
2013-01-23 01:11:00,6.2,-13.0,30.00,NW,307,11.0,15.0,40,0.00,,,0.00,Wunderground v.1.15,2013-01-23 06:11:00,
2013-01-23 01:21:00,6.1,-13.1,30.00,NW,314,13.0,13.0,40,0.00,,,0.00,Wunderground v.1.15,2013-01-23 06:21:00,
2013-01-23 01:31:00,6.1,-12.6,30.00,WNW,296,15.0,15.0,41,0.00,,,0.00,Wunderground v.1.15,2013-01-23 06:31:00,
2013-01-23 01:41:00,6.0,-13.2,30.00,West,274,14.0,15.0,40,0.00,,,0.00,Wunderground v.1.15,2013-01-23 06:41:00,
2013-01-23 01:51:00,5.8,-12.9,30.00,NW,304,12.0,16.0,41,0.00,,,0.00,Wunderground v.1.15,2013-01-23 06:51:00,
2013-01-23 02:01:00,5.5,-12.7,30.00,WNW,296,11.0,18.0,42,0.00,,,0.00,Wunderground v.1.15,2013-01-23 07:01:00,
2013-01-23 02:11:00,5.1,-12.1,30.00,WNW,301,8.0,8.0,44,0.00,,,0.00,Wunderground v.1.15,2013-01-23 07:11:00,
2013-01-23 02:16:00,4.8,-11.9,30.00,WSW,247,5.0,22.0,45,0.00,,,0.00,Wunderground v.1.15,2013-01-23 07:16:00,
2013-01-23 02:26:00,4.3,-11.5,30.00,West,280,5.0,22.0,47,0.00,,,0.00,Wunderground v.1.15,2013-01-23 07:26:00,
2013-01-23 02:31:00,4.3,-11.5,30.00,NW,306,6.0,6.0,47,0.00,,,0.00,Wunderground v.1.15,2013-01-23 07:31:00,
2013-01-23 02:41:00,4.1,-11.7,30.00,WNW,301,7.0,22.0,47,0.00,,,0.00,Wunderground v.1.15,2013-01-23 07:41:00,
2013-01-23 02:46:00,4.0,-11.8,30.00,NW,313,7.0,22.0,47,0.00,,,0.00,Wunderground v.1.15,2013-01-23 07:46:00,
2013-01-23 02:51:00,3.9,-11.9,30.00,West,267,8.0,8.0,47,0.00,,,0.00,Wunderground v.1.15,2013-01-23 07:51:00,
2013-01-23 03:01:00,4.0,-12.7,29.99,WNW,302,12.0,22.0,45,0.00,,,0.00,Wunderground v.1.15,2013-01-23 08:01:00,
2013-01-23 03:11:00,3.9,-12.8,30.00,WNW,284,12.0,22.0,45,0.00,,,0.00,Wunderground v.1.15,2013-01-23 08:11:00,
2013-01-23 03:16:00,3.8,-12.9,30.00,WNW,292,12.0,22.0,45,0.00,,,0.00,Wunderground v.1.15,2013-01-23 08:16:00,
2013-01-23 03:21:00,3.7,-12.9,30.00,WNW,292,11.0,22.0,45,0.00,,,0.00,Wunderground v.1.15,2013-01-23 08:21:00,
2013-01-23 03:31:00,3.4,-12.8,30.00,NW,321,10.0,10.0,46,0.00,,,0.00,Wunderground v.1.15,2013-01-23 08:31:00,
2013-01-23 03:36:00,3.3,-12.9,30.00,West,280,9.0,12.0,46,0.00,,,0.00,Wunderground v.1.15,2013-01-23 08:36:00,
2013-01-23 03:46:00,3.1,-12.6,30.00,WNW,287,9.0,22.0,47,0.00,,,0.00,Wunderground v.1.15,2013-01-23 08:46:00,
2013-01-23 03:51:00,3.0,-12.3,30.00,NNW,344,7.0,7.0,48,0.00,,,0.00,Wunderground v.1.15,2013-01-23 08:51:00,
2013-01-23 03:56:00,2.8,-12.5,30.00,WNW,283,6.0,22.0,48,0.00,,,0.00,Wunderground v.1.15,2013-01-23 08:56:00,
2013-01-23 04:01:00,2.8,-12.5,30.00,WNW,283,7.0,7.0,48,0.00,,,0.00,Wunderground v.1.15,2013-01-23 09:01:00,
2013-01-23 04:06:00,2.6,-12.3,30.00,West,281,9.0,12.0,49,0.00,,,0.00,Wunderground v.1.15,2013-01-23 09:06:00,
2013-01-23 04:16:00,2.4,-12.4,30.01,West,280,9.0,22.0,49,0.00,,,0.00,Wunderground v.1.15,2013-01-23 09:16:00,
2013-01-23 04:26:00,2.2,-12.6,30.01,WNW,292,9.0,22.0,49,0.00,,,0.00,Wunderground v.1.15,2013-01-23 09:26:00,
2013-01-23 04:31:00,2.0,-12.8,30.01,NW,307,8.0,22.0,49,0.00,,,0.00,Wunderground v.1.15,2013-01-23 09:31:00,
2013-01-23 04:36:00,1.9,-12.9,30.01,WNW,300,7.0,22.0,49,0.00,,,0.00,Wunderground v.1.15,2013-01-23 09:36:00,
2013-01-23 04:41:00,1.7,-12.7,30.01,WNW,288,7.0,22.0,50,0.00,,,0.00,Wunderground v.1.15,2013-01-23 09:41:00,
2013-01-23 04:46:00,1.5,-12.9,30.01,West,263,6.0,22.0,50,0.00,,,0.00,Wunderground v.1.15,2013-01-23 09:46:00,
2013-01-23 04:56:00,1.2,-12.8,30.01,WNW,289,6.0,22.0,51,0.00,,,0.00,Wunderground v.1.15,2013-01-23 09:56:00,
2013-01-23 05:01:00,1.0,-12.6,30.02,WNW,291,5.0,22.0,52,0.00,,,0.00,Wunderground v.1.15,2013-01-23 10:01:00,
2013-01-23 05:11:00,0.9,-12.6,30.01,West,273,6.0,22.0,52,0.00,,,0.00,Wunderground v.1.15,2013-01-23 10:11:00,
2013-01-23 05:21:00,0.7,-12.8,30.01,West,280,7.0,7.0,52,0.00,,,0.00,Wunderground v.1.15,2013-01-23 10:21:00,
2013-01-23 05:26:00,0.6,-12.5,30.02,WNW,294,5.0,22.0,53,0.00,,,0.00,Wunderground v.1.15,2013-01-23 10:26:00,
2013-01-23 05:36:00,0.4,-12.7,30.02,NNE,26,5.0,22.0,53,0.00,,,0.00,Wunderground v.1.15,2013-01-23 10:36:00,
2013-01-23 05:41:00,0.4,-12.7,30.02,NNW,331,5.0,5.0,53,0.00,,,0.00,Wunderground v.1.15,2013-01-23 10:41:00,
2013-01-23 05:51:00,0.2,-13.3,30.02,NW,315,5.0,22.0,52,0.00,,,0.00,Wunderground v.1.15,2013-01-23 10:51:00,
2013-01-23 06:01:00,0.0,-13.1,30.03,WNW,301,5.0,22.0,53,0.00,,,0.00,Wunderground v.1.15,2013-01-23 11:01:00,
2013-01-23 06:06:00,0.0,-13.5,30.03,NW,313,6.0,22.0,52,0.00,,,0.00,Wunderground v.1.15,2013-01-23 11:06:00,
2013-01-23 06:11:00,-0.1,-13.2,30.03,WNW,296,6.0,22.0,53,0.00,,,0.00,Wunderground v.1.15,2013-01-23 11:11:00,
2013-01-23 06:16:00,0.9,-12.6,30.03,WNW,291,5.0,22.0,52,0.00,,,0.00,Wunderground v.1.15,2013-01-23 11:16:00,
2013-01-23 06:26:00,0.7,-12.8,30.03,West,269,5.0,22.0,52,0.00,,,0.00,Wunderground v.1.15,2013-01-23 11:26:00,
2013-01-23 06:36:00,0.6,-12.9,30.03,West,266,4.0,22.0,52,0.00,,,0.00,Wunderground v.1.15,2013-01-23 11:36:00,
2013-01-23 06:41:00,0.7,-12.8,30.03,West,263,4.0,4.0,52,0.00,,,0.00,Wunderground v.1.15,2013-01-23 11:41:00,
2013-01-23 06:46:00,0.7,-12.8,30.03,West,260,5.0,8.0,52,0.00,,,0.00,Wunderground v.1.15,2013-01-23 11:46:00,
2013-01-23 06:51:00,0.6,-12.9,30.04,SW,218,5.0,5.0,52,0.00,,,0.00,Wunderground v.1.15,2013-01-23 11:51:00,
2013-01-23 06:56:00,1.3,-13.1,30.03,West,281,8.0,12.0,50,0.00,,,0.00,Wunderground v.1.15,2013-01-23 11:56:00,
2013-01-23 07:06:00,1.1,-13.2,30.04,WNW,296,13.0,22.0,50,0.00,,,0.00,Wunderground v.1.15,2013-01-23 12:06:00,
2013-01-23 07:11:00,0.6,-13.7,30.04,NW,306,12.0,12.0,50,0.00,,,0.00,Wunderground v.1.15,2013-01-23 12:11:00,
2013-01-23 07:21:00,0.2,-13.7,30.04,WNW,282,12.0,22.0,51,0.00,,,0.00,Wunderground v.1.15,2013-01-23 12:21:00,
2013-01-23 07:26:00,0.0,-13.5,30.04,WNW,294,13.0,22.0,52,0.00,,,0.00,Wunderground v.1.15,2013-01-23 12:26:00,
2013-01-23 07:31:00,0.1,-13.4,30.04,WNW,294,12.0,22.0,52,0.00,,,0.00,Wunderground v.1.15,2013-01-23 12:31:00,
2013-01-23 07:41:00,0.0,-13.1,30.04,WNW,282,15.0,22.0,53,0.00,,,0.00,Wunderground v.1.15,2013-01-23 12:41:00,
2013-01-23 07:51:00,-0.1,-13.6,30.04,WNW,298,15.0,15.0,52,0.00,,,0.00,Wunderground v.1.15,2013-01-23 12:51:00,
2013-01-23 08:01:00,-0.2,-15.3,30.05,WNW,294,16.0,16.0,48,0.00,,,0.00,Wunderground v.1.15,2013-01-23 13:01:00,
2013-01-23 08:11:00,0.1,-13.4,30.05,NW,308,15.0,15.0,52,0.00,,,0.00,Wunderground v.1.15,2013-01-23 13:11:00,
2013-01-23 08:16:00,0.2,-12.5,30.05,WNW,303,15.0,22.0,54,0.00,,,0.00,Wunderground v.1.15,2013-01-23 13:16:00,
2013-01-23 08:21:00,1.4,-13.8,30.05,West,267,12.0,22.0,48,0.00,,,0.00,Wunderground v.1.15,2013-01-23 13:21:00,
2013-01-23 08:31:00,1.3,-14.3,30.04,WNW,292,17.0,17.0,47,0.00,,,0.00,Wunderground v.1.15,2013-01-23 13:31:00,
2013-01-23 08:36:00,1.2,-14.8,30.04,WNW,290,16.0,18.0,46,0.00,,,0.00,Wunderground v.1.15,2013-01-23 13:36:00,
2013-01-23 08:41:00,1.3,-14.7,30.04,WNW,288,14.0,14.0,46,0.00,,,0.00,Wunderground v.1.15,2013-01-23 13:41:00,
2013-01-23 08:51:00,1.3,-14.7,30.05,West,281,14.0,14.0,46,0.00,,,0.00,Wunderground v.1.15,2013-01-23 13:51:00,
2013-01-23 09:01:00,1.4,-14.6,30.04,West,264,14.0,22.0,46,0.00,,,0.00,Wunderground v.1.15,2013-01-23 14:01:00,
2013-01-23 09:11:00,1.5,-14.5,30.05,West,281,16.0,22.0,46,0.00,,,0.00,Wunderground v.1.15,2013-01-23 14:11:00,
2013-01-23 09:16:00,1.4,-15.1,30.04,West,269,15.0,22.0,45,0.00,,,0.00,Wunderground v.1.15,2013-01-23 14:16:00,
2013-01-23 09:21:00,1.6,-14.4,30.05,West,273,15.0,15.0,46,0.00,,,0.00,Wunderground v.1.15,2013-01-23 14:21:00,
2013-01-23 09:31:00,1.7,-14.3,30.05,WNW,284,13.0,22.0,46,0.00,,,0.00,Wunderground v.1.15,2013-01-23 14:31:00,
2013-01-23 09:41:00,1.6,-14.4,30.05,West,271,16.0,16.0,46,0.00,,,0.00,Wunderground v.1.15,2013-01-23 14:41:00,
2013-01-23 09:51:00,1.8,-14.3,30.05,West,264,15.0,15.0,46,0.00,,,0.00,Wunderground v.1.15,2013-01-23 14:51:00,
2013-01-23 09:56:00,2.0,-13.6,30.05,WSW,253,13.0,22.0,47,0.00,,,0.00,Wunderground v.1.15,2013-01-23 14:56:00,
2013-01-23 10:01:00,1.9,-14.2,30.05,West,274,14.0,22.0,46,0.00,,,0.00,Wunderground v.1.15,2013-01-23 15:01:00,
2013-01-23 10:06:00,2.0,-14.1,30.05,West,277,15.0,22.0,46,0.00,,,0.00,Wunderground v.1.15,2013-01-23 15:06:00,
2013-01-23 10:16:00,2.2,-14.3,30.05,WNW,291,16.0,22.0,45,0.00,,,0.00,Wunderground v.1.15,2013-01-23 15:16:00,
2013-01-23 10:26:00,2.2,-14.8,30.04,WSW,252,15.0,22.0,44,0.00,,,0.00,Wunderground v.1.15,2013-01-23 15:26:00,
2013-01-23 10:36:00,2.4,-14.1,30.03,WNW,291,14.0,22.0,45,0.00,,,0.00,Wunderground v.1.15,2013-01-23 15:36:00,
2013-01-23 10:46:00,2.5,-14.0,30.03,West,271,15.0,22.0,45,0.00,,,0.00,Wunderground v.1.15,2013-01-23 15:46:00,
2013-01-23 10:51:00,2.2,-15.2,30.03,West,260,16.0,22.0,43,0.00,,,0.00,Wunderground v.1.15,2013-01-23 15:51:00,
2013-01-23 11:01:00,2.5,-14.5,30.02,West,275,15.0,15.0,44,0.00,,,0.00,Wunderground v.1.15,2013-01-23 16:01:00,
2013-01-23 11:11:00,2.6,-14.9,30.02,West,270,14.0,14.0,43,0.00,,,0.00,Wunderground v.1.15,2013-01-23 16:11:00,
2013-01-23 11:21:00,2.6,-14.9,30.02,West,277,16.0,16.0,43,0.00,,,0.00,Wunderground v.1.15,2013-01-23 16:21:00,
2013-01-23 11:31:00,2.6,-15.3,30.01,NW,307,17.0,24.0,42,0.00,,,0.00,Wunderground v.1.15,2013-01-23 16:31:00,
2013-01-23 11:36:00,3.0,-14.5,30.01,WSW,249,17.0,24.0,43,0.00,,,0.00,Wunderground v.1.15,2013-01-23 16:36:00,
2013-01-23 11:41:00,3.2,-14.3,30.01,West,273,15.0,23.0,43,0.00,,,0.00,Wunderground v.1.15,2013-01-23 16:41:00,
2013-01-23 11:51:00,2.8,-15.6,30.00,West,281,16.0,22.0,41,0.00,,,0.00,Wunderground v.1.15,2013-01-23 16:51:00,
2013-01-23 12:01:00,3.3,-14.7,30.00,WSW,250,14.0,14.0,42,0.00,,,0.00,Wunderground v.1.15,2013-01-23 17:01:00,
2013-01-23 12:06:00,4.1,-13.0,30.00,WNW,282,12.0,22.0,44,0.00,,,0.00,Wunderground v.1.15,2013-01-23 17:06:00,
2013-01-23 12:16:00,3.6,-14.9,30.00,West,269,15.0,22.0,41,0.00,,,0.00,Wunderground v.1.15,2013-01-23 17:16:00,
2013-01-23 12:26:00,3.3,-15.6,30.00,WSW,257,16.0,22.0,40,0.00,,,0.00,Wunderground v.1.15,2013-01-23 17:26:00,
2013-01-23 12:36:00,3.8,-14.2,30.00,West,271,13.0,22.0,42,0.00,,,0.00,Wunderground v.1.15,2013-01-23 17:36:00,
2013-01-23 12:46:00,3.9,-15.1,29.99,WSW,257,15.0,22.0,40,0.00,,,0.00,Wunderground v.1.15,2013-01-23 17:46:00,
2013-01-23 12:51:00,4.4,-14.6,29.99,WSW,237,14.0,22.0,40,0.00,,,0.00,Wunderground v.1.15,2013-01-23 17:51:00,
2013-01-23 13:01:00,4.6,-14.5,29.99,West,281,13.0,22.0,40,0.00,,,0.00,Wunderground v.1.15,2013-01-23 18:01:00,
2013-01-23 13:06:00,5.0,-14.1,29.99,WNW,284,13.0,22.0,40,0.00,,,0.00,Wunderground v.1.15,2013-01-23 18:06:00,
2013-01-23 13:11:00,4.7,-14.9,29.99,West,279,14.0,22.0,39,0.00,,,0.00,Wunderground v.1.15,2013-01-23 18:11:00,
2013-01-23 13:21:00,4.4,-15.2,29.99,West,263,15.0,15.0,39,0.00,,,0.00,Wunderground v.1.15,2013-01-23 18:21:00,
2013-01-23 13:31:00,4.8,-14.8,29.99,West,276,14.0,14.0,39,0.00,,,0.00,Wunderground v.1.15,2013-01-23 18:31:00,
2013-01-23 13:41:00,4.8,-14.8,29.99,SW,234,12.0,12.0,39,0.00,,,0.00,Wunderground v.1.15,2013-01-23 18:41:00,
2013-01-23 13:51:00,5.1,-14.5,29.99,West,269,13.0,22.0,39,0.00,,,0.00,Wunderground v.1.15,2013-01-23 18:51:00,
2013-01-23 13:56:00,4.8,-15.3,30.00,WSW,255,14.0,22.0,38,0.00,,,0.00,Wunderground v.1.15,2013-01-23 18:56:00,
2013-01-23 14:01:00,5.0,-15.1,30.00,WSW,242,13.0,22.0,38,0.00,,,0.00,Wunderground v.1.15,2013-01-23 19:01:00,
2013-01-23 14:11:00,5.2,-14.4,29.99,WNW,288,15.0,15.0,39,0.00,,,0.00,Wunderground v.1.15,2013-01-23 19:11:00,
2013-01-23 14:16:00,5.2,-14.9,29.99,WNW,288,15.0,16.0,38,0.00,,,0.00,Wunderground v.1.15,2013-01-23 19:16:00,
2013-01-23 14:26:00,5.0,-15.1,29.99,West,265,16.0,22.0,38,0.00,,,0.00,Wunderground v.1.15,2013-01-23 19:26:00,
2013-01-23 14:36:00,5.1,-15.6,29.99,West,277,16.0,22.0,37,0.00,,,0.00,Wunderground v.1.15,2013-01-23 19:36:00,
2013-01-23 14:46:00,4.7,-15.4,30.00,West,266,15.0,22.0,38,0.00,,,0.00,Wunderground v.1.15,2013-01-23 19:46:00,
2013-01-23 14:56:00,4.8,-15.8,29.99,West,272,13.0,22.0,37,0.00,,,0.00,Wunderground v.1.15,2013-01-23 19:56:00,
2013-01-23 15:01:00,5.1,-15.6,29.99,West,280,12.0,22.0,37,0.00,,,0.00,Wunderground v.1.15,2013-01-23 20:01:00,
2013-01-23 15:11:00,5.0,-15.1,29.99,WNW,286,13.0,22.0,38,0.00,,,0.00,Wunderground v.1.15,2013-01-23 20:11:00,
2013-01-23 15:21:00,4.7,-16.5,29.99,WNW,292,14.0,25.0,36,0.00,,,0.00,Wunderground v.1.15,2013-01-23 20:21:00,
2013-01-23 15:31:00,4.5,-16.6,29.99,WNW,286,19.0,19.0,36,0.00,,,0.00,Wunderground v.1.15,2013-01-23 20:31:00,
2013-01-23 15:41:00,4.7,-15.9,29.99,WNW,298,12.0,22.0,37,0.00,,,0.00,Wunderground v.1.15,2013-01-23 20:41:00,
2013-01-23 15:51:00,4.5,-16.6,30.00,WNW,287,16.0,22.0,36,0.00,,,0.00,Wunderground v.1.15,2013-01-23 20:51:00,
2013-01-23 15:56:00,4.4,-16.7,30.00,West,281,16.0,22.0,36,0.00,,,0.00,Wunderground v.1.15,2013-01-23 20:56:00,
2013-01-23 16:06:00,4.3,-16.8,30.00,WNW,285,16.0,19.0,36,0.00,,,0.00,Wunderground v.1.15,2013-01-23 21:06:00,
2013-01-23 16:11:00,4.2,-17.5,30.00,West,277,17.0,17.0,35,0.00,,,0.00,Wunderground v.1.15,2013-01-23 21:11:00,
2013-01-23 16:16:00,4.1,-17.0,30.00,WNW,294,16.0,22.0,36,0.00,,,0.00,Wunderground v.1.15,2013-01-23 21:16:00,
2013-01-23 16:26:00,3.6,-16.9,30.01,WNW,293,14.0,15.0,37,0.00,,,0.00,Wunderground v.1.15,2013-01-23 21:26:00,
2013-01-23 16:36:00,3.3,-16.7,30.01,WNW,290,12.0,13.0,38,0.00,,,0.00,Wunderground v.1.15,2013-01-23 21:36:00,
2013-01-23 16:41:00,3.3,-17.2,30.01,WNW,284,12.0,12.0,37,0.00,,,0.00,Wunderground v.1.15,2013-01-23 21:41:00,
2013-01-23 16:46:00,3.2,-16.7,30.01,WNW,294,12.0,12.0,38,0.00,,,0.00,Wunderground v.1.15,2013-01-23 21:46:00,
2013-01-23 16:56:00,3.0,-16.4,30.01,West,276,12.0,15.0,39,0.00,,,0.00,Wunderground v.1.15,2013-01-23 21:56:00,
2013-01-23 17:01:00,2.9,-16.5,30.01,WSW,254,10.0,10.0,39,0.00,,,0.00,Wunderground v.1.15,2013-01-23 22:01:00,
2013-01-23 17:11:00,2.6,-16.3,30.02,WNW,292,8.0,9.0,40,0.00,,,0.00,Wunderground v.1.15,2013-01-23 22:11:00,
2013-01-23 17:21:00,2.5,-15.9,30.02,WNW,302,8.0,9.0,41,0.00,,,0.00,Wunderground v.1.15,2013-01-23 22:21:00,
2013-01-23 17:26:00,2.4,-16.0,30.02,WNW,292,8.0,9.0,41,0.00,,,0.00,Wunderground v.1.15,2013-01-23 22:26:00,
2013-01-23 17:31:00,2.4,-16.0,30.02,West,275,9.0,9.0,41,0.00,,,0.00,Wunderground v.1.15,2013-01-23 22:31:00,
2013-01-23 17:41:00,2.3,-15.6,30.02,West,269,9.0,18.0,42,0.00,,,0.00,Wunderground v.1.15,2013-01-23 22:41:00,
2013-01-23 17:46:00,2.2,-15.7,30.02,WNW,298,11.0,18.0,42,0.00,,,0.00,Wunderground v.1.15,2013-01-23 22:46:00,
2013-01-23 17:51:00,2.2,-15.7,30.02,WNW,294,10.0,12.0,42,0.00,,,0.00,Wunderground v.1.15,2013-01-23 22:51:00,
2013-01-23 17:56:00,2.1,-15.8,30.02,WNW,292,9.0,12.0,42,0.00,,,0.00,Wunderground v.1.15,2013-01-23 22:56:00,
2013-01-23 18:01:00,2.0,-15.4,30.02,WNW,286,8.0,8.0,43,0.00,,,0.00,Wunderground v.1.15,2013-01-23 23:01:00,
2013-01-23 18:11:00,2.0,-15.9,30.02,WNW,293,9.0,9.0,42,0.00,,,0.00,Wunderground v.1.15,2013-01-23 23:11:00,
2013-01-23 18:21:00,1.9,-15.5,30.02,West,279,10.0,10.0,43,0.00,,,0.00,Wunderground v.1.15,2013-01-23 23:21:00,
2013-01-23 18:26:00,1.8,-15.6,30.03,WSW,256,9.0,10.0,43,0.00,,,0.00,Wunderground v.1.15,2013-01-23 23:26:00,
2013-01-23 18:36:00,1.6,-15.8,30.03,West,281,10.0,13.0,43,0.00,,,0.00,Wunderground v.1.15,2013-01-23 23:36:00,
2013-01-23 18:41:00,1.7,-15.7,30.03,WNW,291,11.0,15.0,43,0.00,,,0.00,Wunderground v.1.15,2013-01-23 23:41:00,
2013-01-23 18:46:00,1.6,-15.8,30.03,West,277,10.0,15.0,43,0.00,,,0.00,Wunderground v.1.15,2013-01-23 23:46:00,
2013-01-23 18:56:00,1.5,-15.9,30.03,WNW,296,10.0,12.0,43,0.00,,,0.00,Wunderground v.1.15,2013-01-23 23:56:00,
2013-01-23 19:01:00,1.6,-15.8,30.03,West,280,11.0,11.0,43,0.00,,,0.00,Wunderground v.1.15,2013-01-24 00:01:00,
2013-01-23 19:11:00,1.4,-16.0,30.04,WNW,286,9.0,9.0,43,0.00,,,0.00,Wunderground v.1.15,2013-01-24 00:11:00,
2013-01-23 19:21:00,1.2,-15.7,30.03,West,262,10.0,10.0,44,0.00,,,0.00,Wunderground v.1.15,2013-01-24 00:21:00,
2013-01-23 19:26:00,1.1,-15.8,30.03,WNW,284,13.0,15.0,44,0.00,,,0.00,Wunderground v.1.15,2013-01-24 00:26:00,
2013-01-23 19:31:00,1.0,-15.9,30.02,WNW,299,14.0,14.0,44,0.00,,,0.00,Wunderground v.1.15,2013-01-24 00:31:00,
2013-01-23 19:41:00,1.0,-15.9,30.02,WNW,283,13.0,13.0,44,0.00,,,0.00,Wunderground v.1.15,2013-01-24 00:41:00,
2013-01-23 19:51:00,0.8,-16.1,30.02,NNW,338,13.0,13.0,44,0.00,,,0.00,Wunderground v.1.15,2013-01-24 00:51:00,
2013-01-23 19:56:00,0.8,-16.5,30.02,WNW,302,14.0,14.0,43,0.00,,,0.00,Wunderground v.1.15,2013-01-24 00:56:00,
2013-01-23 20:06:00,0.6,-16.2,30.03,WNW,296,11.0,14.0,44,0.00,,,0.00,Wunderground v.1.15,2013-01-24 01:06:00,
2013-01-23 20:11:00,0.6,-16.2,30.03,NNW,339,10.0,13.0,44,0.00,,,0.00,Wunderground v.1.15,2013-01-24 01:11:00,
2013-01-23 20:16:00,0.4,-16.4,30.03,WNW,298,11.0,13.0,44,0.00,,,0.00,Wunderground v.1.15,2013-01-24 01:16:00,
2013-01-23 20:26:00,0.3,-16.1,30.03,West,277,10.0,11.0,45,0.00,,,0.00,Wunderground v.1.15,2013-01-24 01:26:00,
2013-01-23 20:31:00,0.3,-16.5,30.02,WNW,303,10.0,10.0,44,0.00,,,0.00,Wunderground v.1.15,2013-01-24 01:31:00,
2013-01-23 20:36:00,0.1,-16.3,30.02,WNW,283,8.0,15.0,45,0.00,,,0.00,Wunderground v.1.15,2013-01-24 01:36:00,
2013-01-23 20:41:00,0.0,-16.4,30.02,West,280,8.0,9.0,45,0.00,,,0.00,Wunderground v.1.15,2013-01-24 01:41:00,
2013-01-23 20:46:00,0.0,-16.4,30.02,West,271,9.0,9.0,45,0.00,,,0.00,Wunderground v.1.15,2013-01-24 01:46:00,
2013-01-23 20:56:00,0.0,-16.4,30.02,WNW,293,11.0,16.0,45,0.00,,,0.00,Wunderground v.1.15,2013-01-24 01:56:00,
2013-01-23 21:01:00,-0.1,-16.4,30.02,West,269,10.0,10.0,45,0.00,,,0.00,Wunderground v.1.15,2013-01-24 02:01:00,
2013-01-23 21:06:00,-0.2,-16.1,30.02,West,272,9.0,16.0,46,0.00,,,0.00,Wunderground v.1.15,2013-01-24 02:06:00,
2013-01-23 21:11:00,-0.3,-16.2,30.02,NNE,24,8.0,8.0,46,0.00,,,0.00,Wunderground v.1.15,2013-01-24 02:11:00,
2013-01-23 21:21:00,-0.4,-16.3,30.02,WSW,257,9.0,9.0,46,0.00,,,0.00,Wunderground v.1.15,2013-01-24 02:21:00,
2013-01-23 21:31:00,-0.5,-16.4,30.03,WNW,288,8.0,13.0,46,0.00,,,0.00,Wunderground v.1.15,2013-01-24 02:31:00,
2013-01-23 21:41:00,-0.7,-16.1,30.02,West,261,8.0,8.0,47,0.00,,,0.00,Wunderground v.1.15,2013-01-24 02:41:00,
2013-01-23 21:51:00,-0.8,-16.2,30.02,WSW,254,11.0,11.0,47,0.00,,,0.00,Wunderground v.1.15,2013-01-24 02:51:00,
2013-01-23 21:56:00,-0.9,-16.3,30.02,West,280,11.0,19.0,47,0.00,,,0.00,Wunderground v.1.15,2013-01-24 02:56:00,
2013-01-23 22:06:00,-1.0,-16.4,30.01,West,281,11.0,14.0,47,0.00,,,0.00,Wunderground v.1.15,2013-01-24 03:06:00,
2013-01-23 22:16:00,-1.1,-16.5,30.02,WNW,287,11.0,16.0,47,0.00,,,0.00,Wunderground v.1.15,2013-01-24 03:16:00,
2013-01-23 22:26:00,-1.2,-16.2,30.02,WNW,288,7.0,9.0,48,0.00,,,0.00,Wunderground v.1.15,2013-01-24 03:26:00,
2013-01-23 22:36:00,-1.3,-16.3,30.01,West,271,11.0,11.0,48,0.00,,,0.00,Wunderground v.1.15,2013-01-24 03:36:00,
2013-01-23 22:41:00,-1.3,-16.3,30.01,West,280,11.0,11.0,48,0.00,,,0.00,Wunderground v.1.15,2013-01-24 03:41:00,
2013-01-23 22:46:00,-1.3,-16.3,30.02,West,265,11.0,11.0,48,0.00,,,0.00,Wunderground v.1.15,2013-01-24 03:46:00,
2013-01-23 22:56:00,-1.5,-16.1,30.02,WNW,298,8.0,10.0,49,0.00,,,0.00,Wunderground v.1.15,2013-01-24 03:56:00,
2013-01-23 23:06:00,-1.6,-16.2,30.02,West,276,11.0,13.0,49,0.00,,,0.00,Wunderground v.1.15,2013-01-24 04:06:00,
2013-01-23 23:11:00,-1.6,-16.2,30.02,WNW,288,13.0,15.0,49,0.00,,,0.00,Wunderground v.1.15,2013-01-24 04:11:00,
2013-01-23 23:21:00,-1.7,-16.2,30.01,NW,304,12.0,12.0,49,0.00,,,0.00,Wunderground v.1.15,2013-01-24 04:21:00,
2013-01-23 23:26:00,-1.8,-16.3,30.01,West,260,12.0,12.0,49,0.00,,,0.00,Wunderground v.1.15,2013-01-24 04:26:00,
2013-01-23 23:31:00,-1.8,-15.9,30.02,NW,304,9.0,9.0,50,0.00,,,0.00,Wunderground v.1.15,2013-01-24 04:31:00,
2013-01-23 23:36:00,-0.8,-15.4,30.02,West,265,8.0,11.0,49,0.00,,,0.00,Wunderground v.1.15,2013-01-24 04:36:00,
2013-01-23 23:41:00,-0.9,-15.5,30.01,WNW,288,7.0,13.0,49,0.00,,,0.00,Wunderground v.1.15,2013-01-24 04:41:00,
2013-01-23 23:51:00,-1.0,-15.2,30.01,West,271,8.0,9.0,50,0.00,,,0.00,Wunderground v.1.15,2013-01-24 04:51:00,
2013-01-23 23:56:00,-1.0,-15.2,30.01,West,275,8.0,9.0,50,0.00,,,0.00,Wunderground v.1.15,2013-01-24 04:56:00,